Temperature
12 11 10 11 12 12 12 12 12 12 12 11 10 11 12 13 12 12 12 12 11 11 10 10 9 9 8 8 7 7 7 7 7 6 6 6 6 7 7 7 7 7 7 7
12 10 12 12 12 11 11 11 11 12 12 11 10 10 12 12 12 12 12 12 11 11 10 9 9 8 8 8 7 7 7 7 6 6 6 6 6 6 6 6 6 7 7 7
11 11 12 12 11 11 11 10 11 10 10 11 10 10 12 12 12 11 11 11 11 10 10 9 9 8 8 7 7 7 7 7 6 6 6 6 6 6 6 6 6 6 6 6
11 11 11 11 11 10 10 10 10 9 8 9 10 8 11 11 10 10 11 11 11 10 9 9 8 8 8 7 7 7 7 6 6 6 6 5 5 5 5 5 5 5 6 6
11 10 10 10 11 10 9 9 9 9 8 7 9 7 9 11 10 10 10 11 11 10 9 9 8 8 7 7 7 7 6 6 6 6 5 5 5 5 5 5 5 5 5 5
10 10 10 10 10 10 9 9 8 8 7 7 9 8 9 10 10 10 10 11 10 10 9 9 8 8 7 7 7 6 6 6 6 5 5 5 5 5 5 5 5 5 5 5
10 9 9 9 8 9 8 7 8 8 7 8 10 9 9 11 11 10 9 10 10 10 9 9 8 8 7 7 6 6 6 6 5 5 5 5 5 4 4 4 5 5 4 5
9 9 9 8 8 7 8 8 7 8 9 9 9 8 10 11 11 11 11 10 10 9 9 8 8 7 7 7 6 6 6 5 5 5 5 5 4 4 4 4 4 4 4 4
9 9 9 9 9 8 8 7 8 7 6 6 8 11 11 11 10 10 10 10 10 9 9 8 8 7 7 7 6 6 5 5 5 5 5 4 4 4 4 4 4 4 4 4
9 8 8 8 7 7 7 8 6 6 6 7 9 10 9 9 9 9 9 9 9 9 9 8 8 7 7 6 6 6 5 5 5 4 4 4 4 4 4 4 4 4 4 4
8 7 7 6 6 6 6 6 6 6 6 6 7 9 11 10 10 9 9 10 9 9 8 8 7 7 6 6 6 5 5 5 4 4 4 4 4 3 3 3 3 3 3 3
7 6 6 7 7 8 7 6 5 5 5 6 5 7 11 10 10 10 9 10 9 9 8 8 7 6 6 5 5 5 5 4 4 4 4 3 3 3 3 3 3 3 3 3
7 5 5 6 5 5 5 6 6 5 5 5 5 7 10 9 10 10 9 9 9 8 8 7 7 6 5 5 5 4 4 4 4 3 3 3 3 3 3 3 3 3 3 3
7 4 5 7 7 4 4 4 5 4 3 4 5 7 9 9 9 9 9 9 8 8 7 7 6 6 5 5 4 4 4 4 3 3 3 3 3 2 2 2 2 2 2 2
6 4 5 6 7 6 5 5 4 4 4 4 6 7 8 9 8 9 9 8 8 7 7 6 6 5 4 4 4 4 3 3 3 3 3 3 2 2 2 2 2 2 2 2
4 4 5 5 6 6 6 6 5 5 5 5 5 6 8 8 9 8 8 8 7 7 6 6 5 4 4 4 3 3 3 3 3 2 2 2 2 2 2 2 2 2 2 2
3 3 4 5 6 5 5 6 6 5 5 5 5 6 7 7 7 7 7 7 6 6 5 5 4 4 3 3 3 3 3 2 2 2 2 2 2 1 1 1 2 2 2 2
3 3 3 4 4 4 7 8 7 7 6 6 6 6 7 7 7 7 7 6 6 5 5 4 4 3 3 3 2 2 2 2 1 1 1 1 1 1 1 1 1 1 1 1
4 3 3 4 4 5 7 7 7 6 5 7 6 6 6 7 6 6 6 6 5 5 4 4 3 3 2 2 2 2 2 1 1 1 1 1 1 1 1 1 1 1 1 1
4 3 3 4 4 4 7 7 7 6 4 6 6 6 6 5 3 4 5 5 4 4 3 3 3 2 2 2 1 1 1 1 1 1 1 1 1 1 1 1 1 1 1 1
2 3 3 3 4 5 7 6 6 4 5 7 7 6 6 4 4 4 4 4 4 3 3 2 2 2 1 1 1 1 1 1 0 0 0 0 0 1 0 0 1 1 1 1
3 2 3 3 3 4 5 4 4 5 6 6 6 6 5 5 4 4 4 3 3 2 2 2 1 1 1 1 1 0 0 0 0 0 0 0 0 0 -0 0 0 0 0 0
3 4 4 4 5 6 5 5 5 6 5 5 5 5 4 4 3 3 3 2 2 2 1 1 1 1 1 0 0 -0 0 0 -0 -0 -0 -0 -0 -0 -0 -0 -0 -0 -0 -0
3 4 3 3 4 5 5 6 5 5 5 5 4 4 3 3 2 2 2 1 1 1 1 1 0 0 0 0 -0 -0 -0 -0 -1 -1 -1 -1 -1 -1 -1 -1 -1 -1 -1 -1
3 3 2 2 3 4 5 5 5 5 4 4 4 3 3 2 2 1 1 1 1 0 0 -0 -0 -0 -0 -0 -1 -1 -1 -1 -1 -1 -1 -1 -1 -1 -1 -1 -1 -1 -1 -1
3 3 3 3 4 4 4 5 4 4 3 3 3 2 2 1 1 1 1 0 0 -0 -0 -1 -1 -1 -1 -1 -1 -1 -1 -2 -2 -2 -2 -2 -2 -2 -2 -2 -1 -1 -1 -1
Wind_Speed
4 3 3 3 3 3 5 6 8 6 1 4 10 14 13 8 7 8 7 5 4 4 2 2 2 2 3 3 4 4 4 4 3 3 3 3 4 4 4 4 5 5 5 5
4 5 3 1 0 3 5 7 8 6 2 5 10 15 14 8 7 6 6 5 4 2 1 2 2 2 3 3 4 4 5 5 4 3 4 4 4 4 5 4 5 6 6 5
5 1 1 2 3 4 6 6 6 7 9 8 8 11 6 3 3 3 4 5 4 4 3 3 3 3 3 3 4 5 5 5 5 5 4 4 4 4 4 5 5 6 7 6
4 3 2 3 4 3 4 2 4 7 7 5 2 6 6 4 5 6 6 5 5 4 3 3 3 4 3 4 4 5 6 6 6 5 5 6 6 6 7 6 5 6 7 8
3 4 3 4 3 2 2 3 5 6 6 6 5 5 8 5 5 6 6 5 3 3 3 3 4 4 4 4 4 5 6 6 6 5 5 6 7 7 6 6 7 7 7 8
2 1 2 1 1 0 2 4 5 4 2 5 6 6 6 4 5 5 4 3 3 2 3 4 4 4 4 4 4 5 6 6 6 6 6 7 8 8 8 9 8 7 7 7
5 5 4 1 1 2 2 1 1 1 2 6 4 4 7 2 2 5 5 4 3 2 2 3 5 5 5 6 5 5 5 6 6 6 6 7 8 8 9 9 8 8 7 7
4 5 7 5 3 2 3 2 2 3 4 3 1 6 5 2 4 3 3 3 2 3 3 4 5 6 6 6 5 5 6 7 7 7 7 7 7 6 7 8 8 8 8 8
4 2 5 4 1 1 2 3 1 1 3 5 6 5 2 3 3 3 2 2 3 3 4 4 4 5 5 6 6 6 7 7 7 7 7 7 8 8 8 8 8 8 8 9
1 2 4 4 2 3 3 0 2 2 2 5 6 6 4 5 5 4 3 3 4 4 4 5 5 5 5 6 6 6 7 8 8 7 7 7 7 8 8 8 9 10 10 9
2 3 4 4 7 7 5 3 4 3 3 4 5 5 1 3 4 4 4 3 4 4 5 5 5 5 6 6 6 7 7 8 8 7 7 8 8 8 8 8 10 10 10 9
5 3 3 4 2 1 6 6 6 4 5 4 4 7 1 2 2 1 1 2 3 5 5 4 4 5 6 7 7 7 7 8 8 8 8 8 8 8 8 9 10 9 9 9
5 5 2 2 1 1 3 5 6 3 2 5 5 7 2 1 1 2 3 5 5 5 5 5 5 6 7 7 8 8 7 8 8 8 8 8 8 8 9 9 9 9 9 8
5 4 7 7 3 5 5 7 8 7 6 7 11 13 10 6 6 6 5 6 6 5 5 5 6 7 7 8 8 8 8 8 8 8 8 8 9 9 9 9 8 8 8 8
4 5 7 9 8 6 9 10 12 14 13 11 11 15 16 10 8 7 6 6 7 6 6 7 7 7 8 8 8 8 8 8 8 8 9 9 9 9 8 8 8 7 7 8
5 5 4 7 10 10 13 13 15 17 16 19 19 21 15 11 9 8 7 7 8 7 7 8 8 8 9 9 9 9 8 8 8 8 9 9 8 8 8 8 8 7 7 6
6 5 4 6 5 6 12 14 16 13 13 13 19 18 11 9 8 7 7 7 7 8 8 8 8 8 9 9 8 8 8 8 8 8 9 9 8 8 8 8 8 7 6 6
8 6 4 4 3 10 9 6 12 15 16 16 14 11 8 8 6 6 6 6 7 7 7 7 7 8 8 8 8 8 7 7 7 8 8 8 8 8 8 7 8 7 6 6
10 8 5 4 6 10 8 6 7 9 11 13 14 12 9 6 6 7 5 4 6 6 6 6 7 8 8 8 8 7 7 7 7 8 9 9 9 9 8 8 8 6 6 6
8 8 7 6 6 8 6 3 4 3 8 5 7 8 5 2 4 6 5 6 6 6 6 6 7 7 7 8 7 7 8 7 8 8 9 9 8 8 8 8 7 6 6 6
9 9 12 11 9 9 4 4 7 4 7 1 2 3 2 3 5 4 6 6 6 6 7 7 7 7 7 7 7 7 8 8 8 8 8 9 8 8 8 7 6 6 6 5
12 10 10 8 10 10 4 6 7 5 2 2 1 1 1 3 4 5 6 6 7 6 7 7 7 7 7 6 6 7 8 8 8 8 8 9 8 8 8 7 6 5 5 5
10 10 6 9 9 2 6 4 3 1 2 2 2 2 3 4 5 6 6 7 7 7 7 7 7 7 7 6 6 8 8 8 8 8 9 8 9 8 7 7 6 6 5 4
4 4 3 4 6 4 3 3 3 2 2 2 2 2 3 4 6 6 6 6 7 7 7 7 7 7 7 7 6 7 8 8 8 8 8 8 8 8 7 6 5 5 5 4
5 5 5 7 6 5 5 4 2 2 1 2 3 3 3 4 6 6 6 6 6 7 6 6 7 7 8 7 7 7 7 7 8 8 8 7 7 7 6 6 6 6 5 6
6 6 7 8 5 4 4 2 2 2 3 3 3 4 4 4 5 6 6 6 5 6 6 7 7 7 7 7 7 7 7 7 7 8 7 6 6 6 5 6 7 8 8 10
Wind_Direction
183 223 221 214 216 286 307 296 287 289 330 294 272 277 277 257 240 241 239 230 218 221 210 196 226 247 260 266 277 288 293 283 272 276 270 270 267 266 269 261 266 269 263 255
200 228 228 181 249 278 277 281 284 293 330 297 282 281 275 252 236 234 229 225 208 202 238 250 266 268 261 265 281 287 289 285 273 267 266 257 264 264 260 257 260 259 257 251
229 114 154 219 238 265 265 260 295 311 314 264 275 289 239 179 187 191 207 207 196 204 225 251 267 275 282 278 273 287 287 285 272 270 277 276 275 278 273 266 263 259 260 252
236 175 202 232 246 252 268 358 315 304 309 293 278 294 266 188 188 195 204 204 202 207 219 248 269 280 284 275 271 275 283 279 273 272 273 271 273 273 271 266 262 261 259 250
221 157 199 236 254 248 278 337 293 282 276 290 244 242 275 182 204 199 194 200 201 207 221 247 260 267 275 274 266 268 271 273 272 268 265 267 272 272 273 272 269 270 262 250
242 136 214 270 11 272 296 285 253 245 256 271 226 211 270 208 199 182 179 191 201 222 239 248 259 268 281 283 277 267 267 273 274 271 265 261 266 272 276 275 270 267 262 251
205 191 169 142 189 180 240 328 337 287 243 251 168 214 252 239 140 169 186 199 209 242 273 271 276 279 286 288 279 270 272 280 280 277 273 265 265 267 268 269 267 269 267 259
207 203 172 180 189 183 219 209 185 244 271 303 249 241 253 156 124 135 163 185 210 245 265 272 269 275 281 284 284 281 282 286 285 281 276 270 268 267 267 267 267 266 264 257
211 175 131 162 203 230 189 200 346 238 282 282 254 238 240 158 147 170 201 237 260 269 276 288 286 284 286 286 281 278 283 286 287 284 281 280 275 274 272 271 271 271 270 264
227 197 163 136 160 261 288 168 136 184 243 270 268 243 228 190 204 213 226 258 270 277 290 300 293 291 292 289 286 287 284 284 282 281 282 287 282 280 274 275 274 273 272 266
196 175 160 171 200 188 180 192 202 221 245 245 279 270 332 161 187 211 234 257 270 288 296 295 293 296 296 292 291 293 292 293 292 286 284 284 284 284 281 278 273 271 269 263
184 177 219 206 161 205 195 191 175 187 232 228 261 272 283 112 114 149 263 283 291 296 296 297 297 301 302 299 299 296 296 296 292 290 289 286 284 284 283 281 277 272 269 263
162 165 188 203 203 215 237 219 206 213 224 224 232 259 233 97 297 283 280 291 299 303 308 314 315 311 306 305 303 299 297 295 293 292 290 288 285 284 281 282 280 274 272 268
158 193 207 214 203 176 218 226 210 195 213 235 234 256 268 268 275 279 283 292 299 308 316 317 312 308 306 306 306 304 301 298 298 295 290 287 285 284 284 286 281 274 272 269
175 218 236 257 264 237 231 225 211 215 221 231 250 257 266 277 293 301 304 308 310 311 315 314 312 309 308 309 306 302 300 299 298 295 292 288 287 286 286 290 289 282 277 276
188 222 241 255 244 250 254 237 225 227 232 242 258 268 268 285 299 301 302 305 304 307 310 314 314 312 310 308 305 303 301 302 301 298 295 295 296 293 291 293 295 284 276 277
182 190 213 248 239 271 255 232 223 223 223 226 244 254 275 285 286 290 298 296 297 302 308 312 313 310 309 308 305 303 304 307 306 302 302 299 297 296 292 292 293 282 277 277
178 183 213 254 245 241 243 198 210 227 237 229 240 258 268 272 281 287 285 290 301 308 313 316 317 313 310 306 307 306 308 309 305 304 306 305 304 301 297 295 290 279 278 275
190 184 207 221 243 266 265 229 205 216 251 232 239 256 268 283 300 289 278 296 303 312 315 312 309 307 309 309 309 312 310 309 306 306 306 307 305 305 302 300 295 286 280 277
196 189 208 218 233 241 249 172 143 156 266 243 225 244 258 278 289 289 325 328 318 318 319 317 317 314 312 309 313 315 309 310 305 305 305 305 305 305 303 302 299 290 281 281
191 202 216 226 238 255 251 144 123 183 249 290 203 228 232 233 245 281 320 323 320 318 318 320 317 313 306 309 315 311 307 309 308 307 309 311 310 307 304 301 296 289 291 286
188 194 206 210 229 243 170 149 183 215 1 27 28 17 327 303 312 318 319 318 319 318 316 317 318 312 312 315 317 311 307 308 313 313 309 309 310 309 306 302 304 301 302 296
198 199 198 205 221 234 159 191 228 344 323 329 355 346 334 318 312 313 316 318 318 317 317 318 314 308 311 313 314 310 310 313 313 315 314 310 309 310 310 311 311 310 304 299
224 208 228 249 250 249 228 242 251 259 263 283 300 309 303 293 298 301 305 309 313 314 314 315 314 310 310 313 312 309 314 318 318 318 317 314 314 315 318 318 312 308 306 301
215 193 225 254 270 274 249 240 245 272 306 310 304 292 290 291 291 292 298 301 304 308 312 317 315 308 309 314 315 317 320 323 321 317 317 318 319 318 322 322 315 307 300 293
215 214 218 240 224 226 254 251 263 268 275 282 291 295 292 284 289 299 300 302 307 313 318 319 316 311 312 316 318 320 322 321 318 317 317 318 318 318 319 321 322 319 310 314
Height
1478 1480 1480 1478 1478 1478 1478 1478 1476 1472 1471 1473 1470 1464 1458 1457 1458 1458 1458 1460 1461 1462 1463 1463 1463 1463 1462 1461 1459 1457 1456 1454 1453 1451 1450 1448 1447 1446 1446 1445 1445 1445 1444 1444
1477 1479 1476 1475 1476 1477 1478 1479 1475 1470 1469 1471 1467 1461 1452 1451 1452 1453 1454 1456 1457 1459 1460 1460 1460 1459 1458 1457 1456 1454 1453 1451 1450 1448 1446 1445 1443 1441 1441 1440 1440 1440 1440 1439
1475 1476 1474 1475 1476 1477 1477 1478 1475 1476 1472 1468 1469 1459 1447 1447 1448 1449 1451 1452 1454 1456 1457 1457 1457 1456 1455 1454 1452 1451 1449 1447 1446 1444 1442 1440 1438 1437 1436 1435 1434 1434 1434 1434
1472 1473 1475 1476 1476 1477 1478 1475 1476 1477 1480 1475 1469 1474 1449 1446 1447 1448 1449 1450 1451 1453 1454 1454 1453 1452 1451 1450 1448 1447 1445 1443 1442 1440 1438 1436 1433 1431 1430 1430 1429 1429 1429 1428
1471 1473 1475 1476 1474 1475 1476 1476 1477 1477 1479 1480 1470 1476 1456 1444 1446 1446 1447 1448 1449 1450 1451 1451 1450 1449 1448 1446 1445 1443 1441 1439 1438 1436 1434 1431 1429 1427 1426 1424 1423 1422 1422 1422
1471 1473 1474 1474 1475 1475 1477 1477 1475 1477 1479 1484 1466 1469 1455 1444 1441 1441 1443 1445 1446 1447 1448 1448 1447 1446 1444 1443 1441 1439 1437 1434 1433 1431 1429 1427 1424 1422 1420 1418 1417 1416 1415 1414
1471 1472 1473 1475 1476 1477 1478 1481 1482 1481 1481 1471 1455 1461 1452 1436 1435 1437 1440 1442 1444 1445 1445 1444 1443 1442 1440 1438 1436 1434 1432 1430 1428 1426 1424 1422 1420 1417 1415 1413 1411 1409 1408 1407
1470 1470 1471 1473 1474 1477 1477 1478 1485 1484 1474 1462 1459 1460 1444 1434 1434 1436 1438 1440 1441 1442 1442 1441 1440 1438 1437 1435 1432 1430 1428 1425 1423 1421 1419 1417 1414 1412 1409 1407 1405 1403 1401 1399
1466 1469 1470 1471 1472 1474 1475 1478 1477 1482 1482 1480 1460 1443 1436 1433 1434 1435 1437 1438 1438 1438 1438 1437 1436 1434 1433 1431 1428 1426 1423 1421 1418 1416 1414 1411 1408 1406 1403 1400 1398 1396 1393 1392
1463 1470 1470 1472 1474 1475 1475 1474 1482 1484 1484 1475 1453 1444 1441 1436 1435 1435 1435 1435 1435 1435 1434 1433 1432 1430 1428 1427 1424 1422 1419 1416 1414 1411 1408 1405 1402 1399 1396 1393 1390 1388 1386 1385
1463 1470 1472 1473 1473 1473 1476 1477 1477 1478 1476 1477 1466 1448 1429 1430 1430 1431 1432 1432 1432 1432 1431 1429 1428 1426 1425 1422 1420 1417 1414 1411 1408 1405 1402 1399 1396 1393 1390 1386 1383 1381 1379 1378
1462 1467 1471 1467 1466 1465 1468 1470 1475 1482 1479 1474 1473 1453 1427 1427 1427 1429 1430 1430 1429 1428 1427 1426 1424 1422 1420 1418 1415 1412 1409 1405 1402 1399 1396 1392 1389 1386 1383 1380 1377 1375 1373 1371
1460 1468 1471 1468 1472 1471 1469 1466 1468 1473 1474 1473 1470 1450 1428 1428 1427 1428 1429 1428 1426 1425 1424 1422 1420 1418 1416 1413 1410 1407 1403 1400 1396 1393 1389 1386 1383 1380 1377 1373 1370 1368 1366 1364
1458 1464 1464 1459 1454 1463 1468 1466 1466 1470 1474 1467 1455 1440 1430 1429 1428 1427 1426 1425 1423 1422 1420 1419 1417 1414 1411 1408 1405 1401 1398 1394 1390 1387 1383 1380 1376 1373 1370 1367 1364 1362 1360 1358
1457 1461 1458 1453 1450 1453 1456 1457 1460 1462 1459 1458 1443 1435 1427 1426 1426 1424 1423 1421 1420 1418 1417 1415 1413 1410 1406 1403 1400 1396 1392 1389 1385 1381 1377 1374 1371 1367 1364 1361 1359 1357 1354 1353
1456 1458 1455 1452 1447 1447 1447 1445 1448 1449 1448 1444 1439 1431 1423 1423 1422 1421 1419 1418 1417 1415 1413 1411 1408 1405 1401 1398 1394 1390 1387 1383 1380 1376 1372 1368 1365 1361 1358 1356 1353 1351 1349 1347
1454 1457 1456 1450 1444 1446 1442 1432 1434 1435 1432 1434 1432 1423 1419 1420 1419 1418 1416 1415 1414 1412 1409 1407 1404 1401 1397 1393 1390 1386 1382 1379 1375 1371 1367 1363 1360 1357 1354 1351 1349 1347 1345 1343
1448 1452 1453 1449 1448 1447 1423 1416 1418 1421 1420 1421 1418 1415 1416 1416 1415 1414 1413 1412 1410 1408 1405 1402 1399 1396 1392 1388 1385 1381 1378 1374 1371 1367 1363 1360 1356 1353 1349 1347 1345 1343 1341 1339
1439 1446 1448 1446 1443 1431 1417 1413 1413 1417 1415 1410 1411 1410 1411 1412 1411 1409 1409 1408 1406 1404 1402 1398 1395 1391 1387 1384 1381 1377 1373 1370 1367 1363 1360 1356 1353 1349 1346 1343 1340 1338 1336 1334
1435 1439 1443 1440 1438 1430 1411 1407 1407 1413 1415 1404 1405 1406 1407 1409 1412 1407 1405 1404 1402 1400 1397 1394 1390 1386 1383 1380 1377 1373 1370 1366 1363 1360 1357 1353 1350 1347 1343 1340 1337 1335 1333 1331
1433 1435 1435 1433 1430 1418 1407 1406 1408 1418 1411 1402 1401 1402 1404 1406 1407 1405 1403 1401 1399 1396 1393 1389 1386 1382 1379 1377 1373 1370 1366 1363 1360 1357 1353 1350 1347 1343 1340 1337 1334 1332 1330 1328
1421 1425 1426 1426 1425 1415 1404 1406 1408 1406 1402 1401 1401 1402 1403 1403 1403 1402 1400 1398 1395 1392 1389 1386 1382 1379 1376 1373 1370 1367 1363 1361 1357 1353 1349 1346 1343 1340 1337 1334 1331 1329 1327 1324
1408 1408 1409 1409 1405 1399 1399 1399 1399 1400 1401 1400 1400 1401 1401 1401 1400 1398 1396 1394 1392 1389 1386 1382 1379 1375 1372 1370 1367 1364 1360 1357 1354 1350 1346 1343 1339 1337 1334 1331 1328 1326 1324 1322
1402 1402 1403 1403 1397 1396 1397 1396 1397 1398 1399 1399 1399 1399 1399 1398 1397 1395 1393 1391 1388 1385 1382 1379 1375 1371 1368 1366 1364 1361 1358 1354 1351 1347 1343 1340 1336 1333 1331 1328 1326 1324 1321 1320
1397 1399 1400 1399 1396 1394 1393 1394 1394 1395 1395 1395 1396 1395 1395 1394 1393 1391 1389 1386 1384 1381 1378 1375 1372 1368 1365 1363 1360 1358 1355 1352 1348 1344 1340 1337 1334 1331 1328 1326 1324 1322 1320 1319
1391 1393 1394 1392 1390 1391 1390 1391 1392 1392 1392 1392 1392 1391 1391 1391 1389 1387 1385 1383 1381 1378 1375 1371 1368 1365 1362 1360 1357 1354 1352 1349 1345 1341 1338 1335 1332 1329 1326 1323 1321 1319 1318 1316